Precipitable_Water
1.35 1.38 1.40 1.43 1.44 1.45 1.44 1.42 1.43 1.42 1.43 1.44 1.41 1.38 1.37 1.40 1.40 1.34 1.27 1.19 1.07 1.01 0.94 0.83 0.76 0.72 0.70 0.67 0.61 0.55 0.52 0.50 0.50 0.50 0.49 0.50 0.48 0.48 0.48 0.50 0.48 0.46
1.36 1.39 1.41 1.43 1.42 1.43 1.44 1.46 1.45 1.45 1.43 1.43 1.42 1.39 1.40 1.40 1.37 1.31 1.22 1.10 1.07 0.99 0.88 0.79 0.74 0.71 0.66 0.60 0.56 0.51 0.49 0.48 0.46 0.50 0.49 0.48 0.49 0.50 0.50 0.49 0.46 0.44
1.36 1.36 1.38 1.37 1.36 1.37 1.41 1.46 1.47 1.45 1.43 1.44 1.44 1.42 1.39 1.38 1.32 1.25 1.15 1.09 1.01 0.91 0.79 0.73 0.69 0.67 0.61 0.55 0.52 0.49 0.49 0.50 0.50 0.51 0.49 0.48 0.49 0.51 0.51 0.49 0.46 0.43
1.33 1.34 1.35 1.37 1.37 1.38 1.41 1.40 1.40 1.40 1.41 1.40 1.39 1.38 1.34 1.31 1.25 1.17 1.08 1.06 0.99 0.84 0.75 0.70 0.66 0.62 0.58 0.56 0.55 0.53 0.51 0.51 0.52 0.51 0.50 0.51 0.52 0.52 0.50 0.48 0.44 0.40
1.29 1.33 1.34 1.35 1.38 1.40 1.40 1.38 1.37 1.38 1.39 1.39 1.35 1.31 1.26 1.22 1.16 1.12 1.08 1.05 0.91 0.77 0.70 0.66 0.65 0.63 0.60 0.58 0.56 0.52 0.52 0.50 0.51 0.49 0.48 0.48 0.52 0.52 0.50 0.45 0.39 0.37
1.32 1.36 1.37 1.37 1.37 1.36 1.36 1.35 1.36 1.37 1.37 1.32 1.28 1.25 1.21 1.18 1.15 1.13 1.09 0.96 0.83 0.73 0.69 0.67 0.64 0.61 0.60 0.56 0.54 0.52 0.51 0.50 0.50 0.49 0.47 0.47 0.50 0.52 0.50 0.46 0.42 0.40
1.32 1.36 1.37 1.38 1.35 1.37 1.36 1.36 1.36 1.36 1.34 1.31 1.27 1.23 1.20 1.14 1.14 1.10 1.01 0.90 0.79 0.72 0.68 0.64 0.61 0.60 0.58 0.56 0.54 0.53 0.51 0.48 0.48 0.47 0.46 0.47 0.49 0.48 0.46 0.42 0.40 0.39
1.33 1.35 1.35 1.33 1.32 1.34 1.35 1.36 1.34 1.33 1.32 1.28 1.22 1.18 1.14 1.11 1.08 1.03 0.95 0.86 0.77 0.70 0.66 0.63 0.61 0.58 0.57 0.56 0.53 0.50 0.49 0.49 0.47 0.46 0.45 0.48 0.50 0.47 0.45 0.42 0.40 0.39
1.34 1.33 1.33 1.31 1.30 1.33 1.34 1.35 1.31 1.28 1.26 1.19 1.14 1.10 1.10 1.08 1.05 0.99 0.92 0.83 0.73 0.68 0.64 0.61 0.60 0.58 0.57 0.55 0.51 0.48 0.47 0.47 0.48 0.47 0.48 0.49 0.48 0.46 0.44 0.42 0.39 0.39
1.32 1.33 1.30 1.29 1.29 1.30 1.29 1.30 1.25 1.22 1.20 1.15 1.10 1.06 1.03 1.04 1.00 0.93 0.85 0.76 0.68 0.65 0.62 0.59 0.59 0.59 0.57 0.53 0.51 0.49 0.47 0.47 0.47 0.47 0.48 0.50 0.48 0.46 0.44 0.42 0.40 0.38
1.30 1.31 1.28 1.27 1.26 1.26 1.26 1.22 1.20 1.18 1.17 1.10 1.05 1.03 1.03 1.00 0.94 0.87 0.80 0.73 0.66 0.62 0.60 0.59 0.60 0.59 0.55 0.53 0.52 0.50 0.48 0.47 0.47 0.48 0.50 0.51 0.49 0.47 0.45 0.43 0.41 0.40
1.27 1.26 1.24 1.23 1.22 1.22 1.23 1.17 1.16 1.14 1.11 1.09 1.08 1.03 1.00 0.95 0.87 0.82 0.77 0.71 0.66 0.64 0.62 0.62 0.60 0.57 0.55 0.52 0.50 0.50 0.49 0.49 0.50 0.51 0.53 0.52 0.50 0.49 0.46 0.44 0.42 0.40
1.22 1.22 1.23 1.20 1.20 1.20 1.21 1.15 1.11 1.09 1.07 1.05 1.04 1.01 0.96 0.89 0.84 0.79 0.76 0.70 0.65 0.64 0.62 0.60 0.58 0.57 0.54 0.51 0.50 0.50 0.51 0.51 0.51 0.51 0.52 0.52 0.50 0.49 0.47 0.45 0.44 0.42
1.20 1.23 1.21 1.19 1.19 1.20 1.18 1.13 1.09 1.06 1.04 1.05 1.06 1.03 0.95 0.87 0.83 0.79 0.76 0.70 0.68 0.66 0.63 0.60 0.59 0.57 0.54 0.53 0.52 0.54 0.53 0.51 0.49 0.49 0.51 0.51 0.50 0.50 0.48 0.45 0.42 0.39
1.19 1.21 1.19 1.18 1.18 1.18 1.16 1.10 1.06 1.04 1.03 1.04 1.05 1.04 0.99 0.90 0.84 0.80 0.72 0.70 0.70 0.66 0.63 0.62 0.59 0.56 0.54 0.53 0.54 0.53 0.52 0.50 0.49 0.50 0.51 0.51 0.50 0.48 0.46 0.43 0.40 0.37
1.18 1.16 1.15 1.16 1.16 1.16 1.15 1.11 1.06 1.03 1.01 1.00 1.01 1.02 0.98 0.92 0.86 0.79 0.72 0.70 0.68 0.66 0.65 0.63 0.60 0.58 0.56 0.57 0.56 0.54 0.52 0.51 0.51 0.51 0.51 0.50 0.47 0.45 0.44 0.42 0.37 0.31
1.15 1.13 1.12 1.12 1.14 1.15 1.15 1.12 1.07 1.04 1.02 1.00 0.99 0.97 0.94 0.91 0.85 0.76 0.71 0.71 0.68 0.67 0.66 0.62 0.61 0.60 0.58 0.59 0.57 0.56 0.54 0.52 0.50 0.50 0.50 0.49 0.47 0.45 0.42 0.39 0.34 0.32
1.14 1.13 1.11 1.10 1.12 1.11 1.12 1.11 1.09 1.06 1.03 1.00 0.98 0.95 0.91 0.89 0.84 0.76 0.73 0.71 0.69 0.69 0.66 0.64 0.61 0.60 0.58 0.58 0.57 0.56 0.56 0.53 0.51 0.50 0.50 0.49 0.49 0.46 0.42 0.37 0.35 0.35
1.15 1.13 1.12 1.10 1.10 1.10 1.10 1.08 1.08 1.05 1.03 1.00 0.97 0.96 0.94 0.89 0.84 0.79 0.75 0.73 0.72 0.70 0.69 0.67 0.64 0.61 0.59 0.58 0.57 0.57 0.56 0.54 0.53 0.52 0.50 0.50 0.52 0.48 0.44 0.44 0.45 0.44
1.15 1.15 1.12 1.12 1.11 1.10 1.09 1.07 1.07 1.05 1.04 1.02 1.00 1.00 0.98 0.94 0.89 0.84 0.80 0.79 0.78 0.76 0.76 0.73 0.67 0.63 0.60 0.58 0.58 0.58 0.58 0.60 0.56 0.53 0.54 0.57 0.55 0.52 0.49 0.48 0.45 0.42
1.13 1.12 1.11 1.12 1.13 1.12 1.10 1.08 1.06 1.06 1.05 1.03 1.02 1.01 1.00 0.97 0.92 0.86 0.83 0.82 0.81 0.80 0.79 0.75 0.67 0.63 0.60 0.59 0.59 0.59 0.60 0.60 0.61 0.61 0.60 0.60 0.57 0.51 0.48 0.47 0.45 0.46
1.14 1.12 1.12 1.14 1.13 1.12 1.10 1.07 1.07 1.07 1.06 1.06 1.04 1.03 1.03 1.00 0.95 0.90 0.86 0.84 0.84 0.84 0.82 0.74 0.67 0.64 0.62 0.60 0.59 0.60 0.63 0.63 0.61 0.55 0.57 0.56 0.52 0.49 0.50 0.52 0.53 0.52
1.15 1.12 1.11 1.11 1.11 1.09 1.07 1.07 1.06 1.06 1.06 1.05 1.02 1.01 0.99 0.97 0.94 0.91 0.89 0.86 0.85 0.85 0.81 0.74 0.67 0.65 0.62 0.60 0.60 0.61 0.62 0.58 0.59 0.55 0.54 0.52 0.49 0.49 0.53 0.54 0.54 0.52
1.16 1.15 1.13 1.11 1.10 1.07 1.07 1.08 1.09 1.09 1.06 1.05 1.02 1.00 0.98 0.96 0.95 0.93 0.91 0.89 0.85 0.83 0.83 0.75 0.68 0.66 0.63 0.61 0.58 0.60 0.59 0.58 0.58 0.55 0.52 0.50 0.47 0.52 0.54 0.52 0.51 0.49
1.19 1.16 1.15 1.13 1.10 1.09 1.10 1.10 1.09 1.08 1.08 1.06 1.04 1.01 0.98 0.97 0.95 0.93 0.91 0.88 0.85 0.84 0.85 0.76 0.68 0.65 0.63 0.59 0.57 0.58 0.60 0.59 0.55 0.53 0.50 0.49 0.48 0.52 0.52 0.49 0.48 0.45
1.18 1.17 1.16 1.14 1.12 1.14 1.15 1.14 1.13 1.09 1.08 1.06 1.04 1.02 0.99 0.98 0.97 0.94 0.90 0.87 0.86 0.86 0.86 0.78 0.69 0.65 0.63 0.60 0.59 0.59 0.58 0.56 0.54 0.52 0.47 0.48 0.49 0.48 0.49 0.46 0.43 0.40
Wind_Speed
16 15 15 14 14 14 14 14 14 15 15 15 15 15 15 15 14 14 13 13 13 12 11 11 10 9 9 9 8 8 7 6 6 5 5 6 6 6 6 6 7 7
15 15 14 13 13 13 13 13 13 14 14 14 15 15 15 15 14 13 13 13 12 11 11 11 10 10 9 9 8 8 7 6 6 6 6 5 5 6 6 6 6 7
14 14 14 13 13 13 13 13 13 13 13 13 13 13 13 14 13 13 13 12 12 11 11 10 10 10 10 9 9 8 7 6 6 6 5 5 5 6 6 6 6 7
14 13 13 13 13 13 13 13 12 12 12 12 12 12 12 12 13 12 12 12 12 11 11 10 10 10 10 9 8 8 7 7 6 6 5 5 6 5 5 6 6 7
14 13 13 13 13 12 13 13 12 12 11 11 11 10 11 12 12 12 12 12 11 11 11 11 11 11 10 9 8 8 7 7 6 6 5 5 6 5 6 6 6 7
13 12 12 12 12 12 12 12 11 11 11 11 11 10 11 12 11 12 12 12 11 11 11 11 11 10 9 9 9 8 8 7 6 6 6 6 6 6 6 7 7 8
13 13 12 12 11 11 11 11 10 10 10 11 10 10 10 10 11 12 12 11 10 10 10 10 10 10 10 9 9 8 8 7 7 6 6 6 6 6 7 7 8 8
13 13 12 12 11 10 10 10 10 10 10 10 10 10 10 10 11 11 10 10 10 10 10 11 10 10 10 9 9 8 8 7 7 7 7 7 7 7 7 8 8 8
13 12 12 11 10 10 10 10 10 9 9 9 9 10 10 10 10 10 10 10 10 10 10 10 10 9 9 9 8 8 8 8 7 7 8 8 8 8 8 8 8 9
13 12 12 11 10 10 10 10 10 9 8 8 9 9 10 10 10 10 10 10 10 10 10 10 9 9 9 9 9 9 8 8 8 8 8 8 8 8 8 8 9 9
13 12 12 11 11 11 11 10 10 9 8 8 8 9 9 10 10 10 10 10 10 10 10 10 10 10 9 9 9 9 9 9 9 9 9 9 9 9 9 9 9 9
13 12 12 12 12 12 11 10 10 9 9 8 8 9 9 10 10 10 10 10 10 10 10 10 10 10 10 10 10 10 10 10 10 10 10 10 9 9 9 10 10 10
13 13 13 13 13 12 11 10 10 10 10 9 9 9 10 10 10 10 10 10 10 11 11 11 10 10 11 11 11 11 11 11 11 11 10 10 10 10 10 10 10 10
14 13 13 13 13 12 12 11 11 11 10 10 9 9 10 11 11 11 11 10 10 11 11 11 11 11 11 11 11 11 12 12 12 12 11 11 11 11 11 11 11 11
14 13 13 14 14 13 12 12 12 11 11 10 10 9 10 11 11 11 11 11 11 11 11 11 11 12 12 12 12 12 13 13 13 13 12 12 12 12 12 12 11 11
14 14 14 15 14 14 13 13 13 12 12 11 11 10 11 12 12 12 12 12 12 12 12 12 12 12 13 13 13 13 14 14 14 13 13 13 13 13 12 12 11 11
15 14 15 15 15 14 14 14 14 14 13 12 12 11 12 12 13 13 12 12 12 12 12 13 13 13 13 13 14 14 14 14 14 14 14 14 14 13 12 12 12 11
15 15 15 15 15 15 15 15 15 15 14 13 13 13 13 13 14 14 14 13 13 13 13 14 14 14 14 14 14 14 14 15 15 15 15 14 14 14 13 13 13 12
16 15 15 15 16 16 16 16 16 15 15 14 14 14 14 14 14 15 15 15 15 15 15 15 16 16 15 15 15 14 15 15 15 15 15 15 15 14 14 14 14 14
16 16 16 16 16 17 17 17 16 16 15 15 15 15 15 15 15 16 16 16 16 16 17 17 17 17 17 16 16 15 16 16 16 15 15 15 15 15 16 15 15 15
17 17 17 17 17 17 17 17 17 17 16 16 16 16 16 16 17 17 17 17 17 17 18 18 19 18 18 17 17 16 16 16 16 16 15 15 15 16 16 15 15 16
17 17 17 17 17 17 18 18 18 18 17 17 16 16 17 17 17 18 18 18 18 18 19 19 20 19 19 18 18 17 17 17 17 16 16 15 15 16 16 15 15 16
17 17 17 18 18 18 18 18 18 18 17 17 17 17 17 17 18 18 19 19 19 19 20 20 20 20 20 19 19 18 18 18 17 17 16 16 16 16 16 16 16 16
18 18 18 18 18 18 18 18 18 18 17 17 17 18 18 18 19 19 19 20 20 20 20 21 21 20 20 20 19 19 19 18 18 18 17 17 17 17 16 16 16 16
18 18 18 18 19 19 19 19 19 18 18 18 18 18 19 19 19 20 20 21 21 20 21 21 20 20 20 20 20 20 20 20 20 19 18 18 18 17 17 17 17 16
19 19 19 19 19 19 19 19 19 18 18 18 18 18 19 19 19 19 20 20 21 21 22 22 21 20 21 21 21 21 21 21 20 19 19 19 18 18 17 18 18 17
Wind_Direction
245 245 245 246 245 245 245 245 247 247 247 248 248 248 248 249 249 244 239 234 232 230 230 232 232 231 232 231 231 232 230 227 228 238 251 262 275 288 298 305 309 313
242 242 243 245 243 243 244 246 247 246 248 250 249 247 247 246 243 238 235 231 227 227 227 226 225 226 228 228 228 226 222 222 229 241 253 265 279 292 299 304 310 315
239 238 241 243 241 241 244 246 246 246 249 249 246 244 244 241 236 232 229 224 221 222 220 219 220 222 224 224 222 218 219 225 233 243 254 268 282 290 296 303 309 315
234 237 239 240 241 243 245 245 243 246 248 243 239 241 242 237 231 226 220 217 217 215 213 217 221 223 222 218 215 217 223 229 236 246 258 271 281 288 295 303 309 314
232 236 238 238 240 243 244 243 242 244 242 236 237 242 239 232 226 219 215 214 214 212 214 220 222 222 218 213 213 219 226 234 241 250 261 271 279 286 292 299 305 312
231 232 233 235 238 241 241 240 239 239 235 235 240 238 230 224 217 210 211 212 211 212 216 218 217 215 212 211 216 223 230 237 244 252 262 270 277 285 290 296 303 309
228 229 230 234 237 238 235 234 235 234 232 235 235 224 215 209 205 205 210 212 210 210 212 212 211 210 211 215 220 226 233 239 245 253 262 270 277 283 289 296 302 307
226 227 229 232 233 231 228 226 228 230 230 229 221 211 204 199 199 205 208 207 206 206 207 208 209 210 213 219 223 228 235 241 249 256 264 272 276 281 287 293 300 305
224 226 227 227 225 222 220 219 222 224 224 219 210 205 202 199 200 202 200 201 204 206 208 210 211 213 218 223 228 233 240 246 254 261 268 272 275 279 285 291 297 302
222 224 223 221 217 214 213 215 217 219 216 206 199 199 200 200 201 200 201 204 208 211 213 215 217 221 226 230 236 241 245 250 257 264 269 271 273 277 282 288 294 297
220 220 218 215 211 209 210 211 214 214 206 197 196 200 202 202 201 203 207 210 212 214 216 218 223 228 232 237 241 245 249 253 259 265 268 269 271 275 280 286 290 294
219 217 214 211 208 207 208 209 210 207 199 196 201 204 204 205 204 207 211 213 216 218 220 224 229 233 237 240 243 247 250 255 260 264 266 268 270 274 278 283 288 292
216 214 212 210 207 205 206 207 205 202 199 201 204 206 208 209 209 211 215 217 220 223 225 229 232 236 239 242 245 249 252 256 260 263 265 267 269 272 277 282 286 289
214 214 212 208 205 204 205 205 204 204 205 206 208 210 213 214 214 216 219 221 224 226 229 231 234 238 241 244 247 250 254 256 259 262 263 265 268 271 276 280 284 287
214 214 211 206 203 204 205 205 206 207 209 212 214 218 220 219 220 221 222 223 225 228 231 233 237 241 243 246 249 252 254 257 260 261 263 265 267 270 274 278 282 285
213 215 212 206 204 206 206 207 209 211 213 217 221 225 225 223 225 226 226 227 228 230 233 236 241 245 245 247 250 253 256 259 260 261 263 264 266 269 272 276 280 282
214 215 212 208 207 208 208 210 213 214 217 222 226 229 229 228 230 231 230 232 233 234 237 241 246 248 247 249 252 255 258 259 260 261 263 265 267 268 270 273 277 280
216 215 211 211 211 211 211 213 216 218 221 225 228 231 231 231 234 235 235 237 239 240 243 247 249 248 248 251 255 258 259 259 260 262 263 265 267 267 268 271 274 278
216 214 213 214 215 215 216 218 219 222 225 228 230 232 235 235 237 239 240 241 243 245 248 250 250 249 250 253 256 258 260 260 260 262 263 265 268 268 267 269 272 275
217 216 216 217 217 218 221 222 224 226 229 231 233 236 239 240 241 243 244 245 247 249 252 253 252 251 251 254 256 258 260 261 261 261 264 267 268 268 267 267 271 274
219 218 219 219 220 221 223 225 228 230 232 235 237 241 244 244 245 246 247 249 250 252 255 255 253 252 252 254 257 258 261 262 261 261 264 267 269 268 267 268 272 274
220 221 222 222 222 224 225 227 230 233 235 238 241 244 247 247 248 249 250 252 253 255 257 256 254 253 253 254 256 258 260 261 260 260 263 267 269 268 266 266 270 272
223 224 224 224 225 226 227 230 233 236 239 242 244 246 248 249 250 252 253 254 255 257 258 258 256 255 254 254 255 257 258 258 259 262 264 267 268 266 263 264 267 270
226 226 226 227 228 228 229 232 236 239 243 245 247 249 249 251 254 255 256 257 258 258 259 259 257 255 252 252 253 255 256 258 261 264 265 265 266 264 262 262 265 266
228 229 229 229 230 230 231 234 237 241 245 248 250 251 252 253 256 257 258 259 259 260 260 259 256 253 251 251 251 253 256 260 263 265 265 265 265 262 260 261 262 263
230 232 232 232 232 232 234 237 240 244 247 249 252 253 253 254 256 258 259 260 261 261 260 258 255 253 253 252 252 254 257 261 263 264 264 265 263 260 260 261 262 261